TimeCST,TemperatureF,Dew PointF,Humidity,Sea Level PressureIn,VisibilityMPH,Wind Direction,Wind SpeedMPH,Gust SpeedMPH,PrecipitationIn,Events,Conditions,WindDirDegrees,DateUTC
12:15 AM,32.0,30.2,93,30.07,5.0,Calm,Calm,-,N/A,,Clear,0,2012-11-20 06:15:00
12:35 AM,30.2,30.2,100,30.06,7.0,Calm,Calm,-,N/A,,Clear,0,2012-11-20 06:35:00
12:55 AM,30.2,30.2,100,30.07,10.0,Calm,Calm,-,N/A,,Clear,0,2012-11-20 06:55:00
1:15 AM,32.0,32.0,100,30.07,2.5,Calm,Calm,-,N/A,,Clear,0,2012-11-20 07:15:00
1:35 AM,32.0,32.0,100,30.08,4.0,Calm,Calm,-,N/A,,Clear,0,2012-11-20 07:35:00
1:55 AM,32.0,32.0,100,30.08,3.0,Calm,Calm,-,N/A,,Clear,0,2012-11-20 07:55:00
2:15 AM,30.2,30.2,100,30.09,2.5,NNW,4.6,-,N/A,,Clear,330,2012-11-20 08:15:00
2:35 AM,30.2,30.2,100,30.10,4.0,NNW,4.6,-,N/A,,Clear,330,2012-11-20 08:35:00
6:15 AM,26.6,26.6,100,30.12,0.2,Calm,Calm,-,N/A,Fog,Light Freezing Fog,0,2012-11-20 12:15:00
6:35 AM,26.6,26.6,100,30.11,0.5,Calm,Calm,-,N/A,Fog,Light Freezing Fog,0,2012-11-20 12:35:00
6:55 AM,26.6,26.6,100,30.12,3.0,Calm,Calm,-,N/A,,Clear,0,2012-11-20 12:55:00
7:15 AM,24.8,23.0,93,30.13,3.0,NNW,3.5,-,N/A,,Clear,330,2012-11-20 13:15:00
7:35 AM,26.6,24.8,93,30.14,0.2,Calm,Calm,-,N/A,Fog,Light Freezing Fog,0,2012-11-20 13:35:00
7:55 AM,26.6,26.6,100,30.15,0.2,Calm,Calm,-,N/A,Fog,Light Freezing Fog,0,2012-11-20 13:55:00
8:15 AM,28.4,28.4,100,30.15,0.2,Calm,Calm,-,N/A,Fog,Light Freezing Fog,0,2012-11-20 14:15:00
8:35 AM,30.2,30.2,100,30.15,0.2,Calm,Calm,-,N/A,Fog,Light Freezing Fog,0,2012-11-20 14:35:00
8:55 AM,30.2,30.2,100,30.15,0.2,Calm,Calm,-,N/A,Fog,Light Freezing Fog,0,2012-11-20 14:55:00
9:15 AM,30.2,30.2,100,30.15,0.2,Calm,Calm,-,N/A,Fog,Light Freezing Fog,0,2012-11-20 15:15:00
9:35 AM,32.0,30.2,93,30.15,0.2,Calm,Calm,-,N/A,Fog,Light Freezing Fog,0,2012-11-20 15:35:00
9:55 AM,32.0,32.0,100,30.15,0.2,Calm,Calm,-,N/A,Fog,Light Freezing Fog,0,2012-11-20 15:55:00
10:15 AM,32.0,32.0,100,30.15,0.2,Calm,Calm,-,N/A,Fog,Fog,0,2012-11-20 16:15:00
10:35 AM,32.0,32.0,100,30.15,0.2,Calm,Calm,-,N/A,Fog,Fog,0,2012-11-20 16:35:00
10:55 AM,32.0,32.0,100,30.15,0.2,Calm,Calm,-,N/A,Fog,Fog,0,2012-11-20 16:55:00
11:15 AM,32.0,32.0,100,30.15,0.2,Calm,Calm,-,N/A,Fog,Fog,0,2012-11-20 17:15:00
11:35 AM,33.8,33.8,100,30.14,0.2,South,3.5,-,N/A,Fog,Fog,190,2012-11-20 17:35:00
11:55 AM,33.8,33.8,100,30.14,0.5,Calm,Calm,-,N/A,Fog,Fog,0,2012-11-20 17:55:00
12:15 PM,33.8,33.8,100,30.14,0.8,Calm,Calm,-,N/A,,Overcast,0,2012-11-20 18:15:00
12:35 PM,35.6,35.6,100,30.14,5.0,NW,3.5,-,N/A,,Mostly Cloudy,310,2012-11-20 18:35:00
12:55 PM,37.4,37.4,100,30.14,10.0,Calm,Calm,-,N/A,,Scattered Clouds,0,2012-11-20 18:55:00
1:15 PM,41.0,35.6,81,30.13,10.0,Calm,Calm,-,N/A,,Clear,0,2012-11-20 19:15:00
1:35 PM,42.8,33.8,70,30.12,10.0,Calm,Calm,-,N/A,,Clear,0,2012-11-20 19:35:00
1:55 PM,44.6,35.6,71,30.12,10.0,Calm,Calm,-,N/A,,Clear,0,2012-11-20 19:55:00
2:15 PM,44.6,35.6,71,30.12,10.0,Calm,Calm,-,N/A,,Clear,0,2012-11-20 20:15:00
2:35 PM,46.4,33.8,62,30.10,10.0,Calm,Calm,-,N/A,,Clear,0,2012-11-20 20:35:00
2:55 PM,46.4,33.8,62,30.10,10.0,Calm,Calm,-,N/A,,Clear,0,2012-11-20 20:55:00
3:15 PM,46.4,33.8,62,30.10,10.0,South,3.5,-,N/A,,Clear,180,2012-11-20 21:15:00
3:35 PM,46.4,33.8,62,30.11,10.0,South,4.6,-,N/A,,Clear,170,2012-11-20 21:35:00
3:55 PM,44.6,33.8,66,30.11,10.0,SSE,4.6,-,N/A,,Clear,160,2012-11-20 21:55:00
4:15 PM,42.8,33.8,70,30.10,10.0,SSE,3.5,-,N/A,,Clear,160,2012-11-20 22:15:00
4:35 PM,41.0,33.8,76,30.10,10.0,Calm,Calm,-,N/A,,Clear,0,2012-11-20 22:35:00
4:55 PM,37.4,32.0,81,30.11,10.0,Calm,Calm,-,N/A,,Clear,0,2012-11-20 22:55:00
5:15 PM,33.8,32.0,93,30.11,10.0,Calm,Calm,-,N/A,,Clear,0,2012-11-20 23:15:00
5:35 PM,33.8,32.0,93,30.11,10.0,Calm,Calm,-,N/A,,Clear,0,2012-11-20 23:35:00
5:55 PM,32.0,30.2,93,30.11,10.0,Calm,Calm,-,N/A,,Clear,0,2012-11-20 23:55:00
6:15 PM,32.0,30.2,93,30.10,10.0,SSE,3.5,-,N/A,,Clear,160,2012-11-21 00:15:00
6:35 PM,32.0,30.2,93,30.09,10.0,Calm,Calm,-,N/A,,Clear,0,2012-11-21 00:35:00
6:55 PM,32.0,30.2,93,30.08,10.0,Calm,Calm,-,N/A,,Clear,0,2012-11-21 00:55:00
7:15 PM,30.2,28.4,93,30.08,10.0,Calm,Calm,-,N/A,,Clear,0,2012-11-21 01:15:00
7:35 PM,30.2,28.4,93,30.08,1.2,Calm,Calm,-,N/A,,Mist,0,2012-11-21 01:35:00
7:55 PM,30.2,28.4,93,30.08,5.0,Calm,Calm,-,N/A,,Clear,0,2012-11-21 01:55:00
8:15 PM,28.4,28.4,100,30.08,7.0,Calm,Calm,-,N/A,,Clear,0,2012-11-21 02:15:00
8:35 PM,30.2,30.2,100,30.07,7.0,Calm,Calm,-,N/A,,Clear,0,2012-11-21 02:35:00
8:55 PM,28.4,26.6,93,30.07,10.0,SSE,3.5,-,N/A,,Clear,160,2012-11-21 02:55:00
9:15 PM,26.6,26.6,100,30.07,10.0,Calm,Calm,-,N/A,,Clear,0,2012-11-21 03:15:00
9:35 PM,28.4,26.6,93,30.06,7.0,SSE,4.6,-,N/A,,Clear,160,2012-11-21 03:35:00
9:55 PM,26.6,24.8,93,30.06,7.0,Calm,Calm,-,N/A,,Clear,0,2012-11-21 03:55:00
10:15 PM,26.6,26.6,100,30.07,7.0,Calm,Calm,-,N/A,,Clear,0,2012-11-21 04:15:00
10:35 PM,26.6,24.8,93,30.06,10.0,Calm,Calm,-,N/A,,Clear,0,2012-11-21 04:35:00
10:55 PM,26.6,23.0,86,30.06,10.0,Calm,Calm,-,N/A,,Clear,0,2012-11-21 04:55:00
11:15 PM,28.4,26.6,93,30.06,10.0,Calm,Calm,-,N/A,,Clear,0,2012-11-21 05:15:00
11:35 PM,26.6,24.8,93,30.05,7.0,Calm,Calm,-,N/A,,Clear,0,2012-11-21 05:35:00
11:55 PM,26.6,26.6,100,30.05,10.0,Calm,Calm,-,N/A,,Clear,0,2012-11-21 05:55:00